| time (UTC) | temp F | wind direction | speed MPH | gust MPH | rain 1hr in | rain 24hr in | rain mn in | humidity % | barometer mb |
| 20260506235308 | 46 | 175 | 1.0 | 2.0 | 0.00 | 0.01 | 0.00 | 100 | 1013.3 |
| 20260506234808 | 46 | 183 | 0.0 | 1.0 | 0.00 | 0.01 | 0.00 | 100 | 1013.4 |
| 20260506234308 | 46 | 241 | 0.0 | 2.0 | 0.00 | 0.01 | 0.00 | 100 | 1013.4 |
| 20260506230808 | 46 | 278 | 2.0 | 3.0 | 0.00 | 0.01 | 0.00 | 100 | 1013.8 |
| 20260506225807 | 46 | 271 | 2.0 | 3.0 | 0.00 | 0.01 | 0.00 | 100 | 1013.8 |
| 20260506223308 | 46 | 298 | 1.0 | 2.0 | 0.00 | 0.01 | 0.00 | 100 | 1013.9 |
| 20260506222307 | 46 | 271 | 1.0 | 2.0 | 0.00 | 0.01 | 0.00 | 100 | 1014.1 |
| 20260506221808 | 46 | 263 | 1.0 | 2.0 | 0.00 | 0.01 | 0.00 | 100 | 1014.1 |
| 20260506221308 | 46 | 292 | 1.0 | 2.0 | 0.00 | 0.01 | 0.00 | 100 | 1014.2 |
| 20260506215307 | 47 | 5 | 3.0 | 3.0 | 0.00 | 0.01 | 0.01 | 100 | 1014.3 |
| 20260506214810 | 47 | 6 | 3.0 | 3.0 | 0.00 | 0.01 | 0.01 | 100 | 1014.3 |
| 20260506213808 | 47 | 9 | 2.0 | 3.0 | 0.00 | 0.01 | 0.01 | 100 | 1014.3 |
| 20260506213308 | 48 | 342 | 2.0 | 3.0 | 0.00 | 0.01 | 0.01 | 100 | 1014.3 |
| 20260506212808 | 48 | 6 | 2.0 | 3.0 | 0.00 | 0.01 | 0.01 | 100 | 1014.3 |
| 20260506212308 | 48 | 33 | 2.0 | 5.0 | 0.00 | 0.01 | 0.01 | 100 | 1014.2 |
| 20260506211808 | 48 | 41 | 3.0 | 6.0 | 0.00 | 0.01 | 0.01 | 100 | 1014.2 |
| 20260506211308 | 48 | 44 | 3.0 | 7.0 | 0.00 | 0.01 | 0.01 | 100 | 1014.2 |
| 20260506210808 | 47 | 51 | 5.0 | 7.0 | 0.00 | 0.01 | 0.01 | 100 | 1014.2 |
| 20260506205307 | 47 | 16 | 3.0 | 5.0 | 0.00 | 0.01 | 0.01 | 100 | 1014.1 |
| 20260506203308 | 48 | 354 | 4.0 | 6.0 | 0.00 | 0.01 | 0.01 | 99 | 1014.0 |
| 20260506202808 | 48 | 356 | 5.0 | 6.0 | 0.00 | 0.01 | 0.01 | 99 | 1014.0 |
| 20260506202307 | 48 | 11 | 5.0 | 6.0 | 0.00 | 0.01 | 0.01 | 99 | 1013.9 |
| 20260506201808 | 48 | 30 | 3.0 | 5.0 | 0.00 | 0.01 | 0.01 | 99 | 1013.9 |
| 20260506201308 | 48 | 46 | 3.0 | 6.0 | 0.00 | 0.01 | 0.01 | 99 | 1013.9 |
| 20260506200808 | 48 | 47 | 5.0 | 6.0 | 0.00 | 0.01 | 0.01 | 99 | 1013.8 |
| 20260506200307 | 48 | 38 | 3.0 | 8.0 | 0.00 | 0.01 | 0.01 | 99 | 1013.8 |
| 20260506195808 | 48 | 60 | 5.0 | 8.0 | 0.00 | 0.01 | 0.01 | 99 | 1013.8 |
| 20260506194808 | 49 | 58 | 5.0 | 8.0 | 0.00 | 0.01 | 0.01 | 99 | 1013.8 |
| 20260506194308 | 49 | 44 | 6.0 | 12.0 | 0.00 | 0.01 | 0.01 | 99 | 1013.7 |
| 20260506193807 | 49 | 37 | 7.0 | 13.0 | 0.00 | 0.01 | 0.01 | 99 | 1013.7 |
| 20260506193308 | 50 | 51 | 7.0 | 14.0 | 0.00 | 0.01 | 0.01 | 99 | 1013.6 |
| 20260506192808 | 50 | 54 | 9.0 | 15.0 | 0.00 | 0.01 | 0.01 | 99 | 1013.5 |
| 20260506191308 | 51 | 58 | 12.0 | 20.0 | 0.00 | 0.01 | 0.01 | 100 | 1013.5 |
| 20260506190307 | 52 | 45 | 12.0 | 21.0 | 0.00 | 0.01 | 0.01 | 100 | 1013.3 |
| 20260506185808 | 53 | 44 | 14.0 | 21.0 | 0.00 | 0.01 | 0.01 | 100 | 1013.2 |
| 20260506184807 | 54 | 53 | 12.0 | 22.0 | 0.00 | 0.01 | 0.01 | 100 | 1013.2 |
| 20260506183808 | 54 | 56 | 14.0 | 22.0 | 0.00 | 0.01 | 0.01 | 100 | 1013.2 |
| 20260506182807 | 55 | 52 | 17.0 | 20.0 | 0.00 | 0.01 | 0.01 | 100 | 1013.1 |
| 20260506181308 | 55 | 59 | 12.0 | 22.0 | 0.00 | 0.01 | 0.01 | 100 | 1013.2 |
| 20260506180307 | 56 | 1 | 8.0 | 12.0 | 0.00 | 0.01 | 0.01 | 100 | 1013.1 |
| 20260506175807 | 56 | 346 | 8.0 | 12.0 | 0.00 | 0.01 | 0.01 | 100 | 1013.1 |
| 20260506175308 | 56 | 6 | 7.0 | 12.0 | 0.00 | 0.01 | 0.01 | 100 | 1013.2 |
| 20260506173807 | 56 | 20 | 8.0 | 12.0 | 0.00 | 0.01 | 0.01 | 99 | 1013.2 |
| 20260506172807 | 56 | 27 | 8.0 | 15.0 | 0.00 | 0.01 | 0.01 | 96 | 1013.1 |
| 20260506172308 | 56 | 20 | 9.0 | 17.0 | 0.00 | 0.01 | 0.01 | 95 | 1013.1 |
| 20260506171308 | 58 | 51 | 15.0 | 17.0 | 0.00 | 0.01 | 0.01 | 92 | 1013.2 |
| 20260506170807 | 59 | 55 | 12.0 | 16.0 | 0.00 | 0.01 | 0.01 | 92 | 1013.1 |
| 20260506170307 | 60 | 25 | 12.0 | 15.0 | 0.00 | 0.01 | 0.01 | 91 | 1013.2 |
| 20260506165808 | 60 | 7 | 9.0 | 16.0 | 0.00 | 0.01 | 0.01 | 92 | 1013.1 |
| 20260506163807 | 59 | 337 | 10.0 | 15.0 | 0.00 | 0.01 | 0.01 | 93 | 1013.4 |
| 20260506162807 | 57 | 312 | 12.0 | 15.0 | 0.00 | 0.01 | 0.01 | 95 | 1013.5 |
| 20260506162307 | 57 | 312 | 10.0 | 15.0 | 0.00 | 0.01 | 0.01 | 93 | 1013.5 |
| 20260506161808 | 57 | 321 | 11.0 | 17.0 | 0.00 | 0.01 | 0.01 | 93 | 1013.5 |
| 20260506161307 | 57 | 319 | 11.0 | 17.0 | 0.00 | 0.01 | 0.01 | 92 | 1013.5 |
| 20260506160808 | 58 | 310 | 14.0 | 16.0 | 0.00 | 0.01 | 0.01 | 92 | 1013.5 |
| 20260506160307 | 58 | 350 | 11.0 | 15.0 | 0.00 | 0.01 | 0.01 | 93 | 1013.5 |
| 20260506155807 | 59 | 0 | 10.0 | 14.0 | 0.00 | 0.01 | 0.01 | 94 | 1013.5 |
| 20260506155308 | 58 | 336 | 9.0 | 17.0 | 0.00 | 0.01 | 0.01 | 94 | 1013.6 |
| 20260506154807 | 58 | 302 | 12.0 | 17.0 | 0.00 | 0.02 | 0.01 | 95 | 1013.6 |
| 20260506154309 | 57 | 334 | 11.0 | 18.0 | 0.00 | 0.02 | 0.01 | 94 | 1013.6 |
| 20260506153307 | 57 | 10 | 9.0 | 15.0 | 0.00 | 0.02 | 0.01 | 96 | 1013.7 |
| 20260506150807 | 57 | 18 | 7.0 | 14.0 | 0.00 | 0.02 | 0.01 | 94 | 1014.1 |
| 20260506145807 | 58 | 29 | 10.0 | 15.0 | 0.00 | 0.13 | 0.01 | 97 | 1014.3 |
| 20260506145307 | 58 | 350 | 11.0 | 15.0 | 0.00 | 0.22 | 0.01 | 97 | 1014.3 |
| 20260506144307 | 57 | 311 | 12.0 | 16.0 | 0.00 | 0.24 | 0.01 | 100 | 1014.4 |
| 20260506143807 | 56 | 307 | 13.0 | 16.0 | 0.00 | 0.24 | 0.01 | 99 | 1014.5 |
| 20260506143308 | 56 | 325 | 12.0 | 16.0 | 0.00 | 0.24 | 0.01 | 99 | 1014.6 |
| 20260506141808 | 57 | 311 | 12.0 | 20.0 | 0.00 | 0.24 | 0.01 | 98 | 1014.5 |
| 20260506141308 | 56 | 302 | 16.0 | 20.0 | 0.00 | 0.24 | 0.01 | 99 | 1014.6 |
| 20260506140807 | 56 | 338 | 13.0 | 18.0 | 0.00 | 0.24 | 0.01 | 100 | 1014.7 |
| 20260506135807 | 57 | 3 | 13.0 | 17.0 | 0.00 | 0.24 | 0.01 | 99 | 1014.7 |
| 20260506134308 | 58 | 326 | 13.0 | 16.0 | 0.00 | 0.25 | 0.01 | 95 | 1014.7 |
| 20260506133307 | 59 | 324 | 9.0 | 15.0 | 0.00 | 0.25 | 0.01 | 89 | 1014.5 |
| 20260506132307 | 62 | 38 | 9.0 | 15.0 | 0.00 | 0.25 | 0.01 | 79 | 1014.4 |
| 20260506131808 | 62 | 348 | 1.0 | 8.0 | 0.00 | 0.25 | 0.01 | 77 | 1014.4 |
| 20260506130808 | 61 | 103 | 4.0 | 12.0 | 0.00 | 0.25 | 0.01 | 81 | 1014.5 |
| 20260506125307 | 61 | 43 | 5.0 | 12.0 | 0.00 | 0.25 | 0.01 | 82 | 1014.6 |
| 20260506124808 | 61 | 36 | 5.0 | 8.0 | 0.00 | 0.25 | 0.01 | 87 | 1014.6 |
| 20260506123308 | 59 | 224 | 2.0 | 3.0 | 0.00 | 0.29 | 0.01 | 85 | 1014.9 |
| 20260506121808 | 58 | 77 | 6.0 | 10.0 | 0.00 | 0.29 | 0.01 | 88 | 1015.2 |
| 20260506121307 | 58 | 92 | 5.0 | 10.0 | 0.00 | 0.29 | 0.01 | 89 | 1015.2 |
| 20260506120807 | 58 | 112 | 4.0 | 7.0 | 0.00 | 0.30 | 0.01 | 88 | 1015.2 |
| 20260506115307 | 58 | 129 | 6.0 | 13.0 | 0.00 | 0.33 | 0.01 | 88 | 1015.3 |
| 20260506113808 | 59 | 88 | 5.0 | 12.0 | 0.00 | 0.35 | 0.01 | 90 | 1015.4 |
| 20260506112807 | 59 | 74 | 7.0 | 13.0 | 0.00 | 0.35 | 0.01 | 91 | 1015.5 |
| 20260506112307 | 58 | 127 | 3.0 | 10.0 | 0.00 | 0.35 | 0.01 | 92 | 1015.6 |
| 20260506110807 | 58 | 125 | 5.0 | 10.0 | 0.00 | 0.35 | 0.01 | 91 | 1015.7 |
| 20260506105807 | 58 | 135 | 5.0 | 12.0 | 0.00 | 0.35 | 0.01 | 97 | 1015.8 |
| 20260506104807 | 57 | 118 | 7.0 | 12.0 | 0.00 | 0.35 | 0.01 | 100 | 1015.8 |
| 20260506104307 | 57 | 83 | 6.0 | 12.0 | 0.00 | 0.35 | 0.01 | 100 | 1015.9 |
| 20260506102807 | 56 | 119 | 6.0 | 10.0 | 0.00 | 0.35 | 0.01 | 100 | 1016.2 |
| 20260506102309 | 55 | 111 | 6.0 | 9.0 | 0.00 | 0.35 | 0.01 | 100 | 1016.1 |
| 20260506101307 | 53 | 80 | 1.0 | 5.0 | 0.00 | 0.36 | 0.01 | 100 | 1016.2 |
| 20260506100307 | 53 | 135 | 1.0 | 5.0 | 0.00 | 0.39 | 0.01 | 100 | 1016.2 |
| 20260506095807 | 53 | 7 | 2.0 | 5.0 | 0.00 | 0.39 | 0.01 | 100 | 1016.1 |
| 20260506094307 | 53 | 295 | 6.0 | 9.0 | 0.00 | 0.39 | 0.01 | 100 | 1016.2 |
| 20260506093807 | 53 | 296 | 5.0 | 8.0 | 0.00 | 0.39 | 0.01 | 100 | 1016.2 |
| 20260506092307 | 53 | 291 | 5.0 | 10.0 | 0.00 | 0.39 | 0.01 | 100 | 1016.1 |
| 20260506091807 | 53 | 272 | 6.0 | 10.0 | 0.00 | 0.39 | 0.01 | 100 | 1016.2 |
| 20260506085307 | 54 | 221 | 2.0 | 6.0 | 0.00 | 0.39 | 0.01 | 100 | 1016.1 |
| 20260506084307 | 53 | 257 | 2.0 | 5.0 | 0.00 | 0.39 | 0.01 | 100 | 1016.2 |
| 20260506083807 | 52 | 262 | 2.0 | 5.0 | 0.00 | 0.39 | 0.01 | 100 | 1016.2 |
| 20260506083307 | 52 | 243 | 2.0 | 6.0 | 0.00 | 0.39 | 0.01 | 100 | 1016.2 |
| 20260506082807 | 51 | 179 | 3.0 | 6.0 | 0.00 | 0.39 | 0.01 | 100 | 1016.3 |
| 20260506082308 | 51 | 339 | 2.0 | 6.0 | 0.00 | 0.39 | 0.01 | 100 | 1016.3 |
| 20260506080807 | 50 | 54 | 3.0 | 6.0 | 0.00 | 0.39 | 0.01 | 100 | 1016.5 |
| 20260506080307 | 50 | 0 | 3.0 | 5.0 | 0.00 | 0.39 | 0.01 | 100 | 1016.5 |
| 20260506072307 | 48 | 339 | 3.0 | 5.0 | 0.00 | 0.42 | 0.01 | 100 | 1016.4 |
| 20260506071807 | 48 | 305 | 3.0 | 5.0 | 0.00 | 0.42 | 0.01 | 100 | 1016.4 |
| 20260506070807 | 48 | 56 | 1.0 | 3.0 | 0.00 | 0.42 | 0.01 | 100 | 1016.3 |
| 20260506062307 | 47 | 157 | 1.0 | 3.0 | 0.00 | 0.42 | 0.01 | 100 | 1016.1 |
| 20260506061807 | 47 | 203 | 1.0 | 3.0 | 0.00 | 0.42 | 0.01 | 100 | 1016.0 |
| 20260506061307 | 47 | 214 | 1.0 | 2.0 | 0.00 | 0.42 | 0.01 | 100 | 1016.0 |
| 20260506050806 | 46 | 320 | 1.0 | 2.0 | 0.00 | 0.42 | 0.01 | 100 | 1016.0 |
| 20260506050307 | 46 | 4 | 1.0 | 2.0 | 0.00 | 0.42 | 0.01 | 100 | 1015.9 |
| 20260506044807 | 46 | 11 | 1.0 | 2.0 | 0.00 | 0.42 | 0.01 | 100 | 1015.9 |
| 20260506044307 | 46 | 195 | 0.0 | 1.0 | 0.00 | 0.42 | 0.01 | 100 | 1016.0 |
| 20260506043807 | 47 | 173 | 1.0 | 1.0 | 0.00 | 0.42 | 0.01 | 100 | 1016.0 |
| 20260506043306 | 47 | 246 | 0.0 | 2.0 | 0.00 | 0.42 | 0.01 | 100 | 1016.0 |
| 20260506041307 | 46 | 259 | 1.0 | 2.0 | 0.00 | 0.42 | 0.01 | 100 | 1016.0 |
| 20260506040807 | 46 | 245 | 1.0 | 2.0 | 0.00 | 0.42 | 0.01 | 100 | 1016.1 |
| 20260506040307 | 46 | 11 | 0.0 | 2.0 | 0.00 | 0.42 | 0.01 | 100 | 1016.1 |
| 20260506035307 | 46 | 244 | 1.0 | 2.0 | 0.00 | 0.42 | 0.01 | 100 | 1016.0 |
| 20260506034807 | 46 | 190 | 1.0 | 3.0 | 0.00 | 0.42 | 0.01 | 100 | 1016.0 |
| 20260506033307 | 45 | 113 | 1.0 | 2.0 | 0.01 | 0.42 | 0.01 | 100 | 1016.1 |
| 20260506032807 | 45 | 137 | 1.0 | 3.0 | 0.01 | 0.42 | 0.01 | 100 | 1016.2 |
| 20260506031806 | 45 | 186 | 0.0 | 2.0 | 0.01 | 0.42 | 0.01 | 100 | 1016.2 |
| 20260506030307 | 45 | 153 | 1.0 | 5.0 | 0.01 | 0.42 | 0.01 | 100 | 1016.2 |
| 20260506025806 | 45 | 163 | 3.0 | 5.0 | 0.01 | 0.42 | 0.01 | 100 | 1016.2 |
| 20260506024807 | 44 | 151 | 2.0 | 3.0 | 0.01 | 0.42 | 0.01 | 100 | 1016.2 |
| 20260506024307 | 44 | 129 | 2.0 | 3.0 | 0.01 | 0.42 | 0.01 | 100 | 1016.2 |
| 20260506023307 | 44 | 114 | 1.0 | 2.0 | 0.00 | 0.41 | 0.00 | 100 | 1016.3 |
| 20260506022307 | 44 | 105 | 1.0 | 3.0 | 0.00 | 0.41 | 0.00 | 100 | 1016.2 |
| 20260506021307 | 44 | 152 | 2.0 | 3.0 | 0.00 | 0.41 | 0.00 | 100 | 1016.3 |
| 20260506015307 | 45 | 175 | 2.0 | 5.0 | 0.00 | 0.42 | 0.00 | 100 | 1016.5 |
| 20260506013807 | 45 | 209 | 3.0 | 5.0 | 0.00 | 0.43 | 0.00 | 100 | 1016.5 |
| 20260506013306 | 45 | 223 | 3.0 | 5.0 | 0.00 | 0.43 | 0.00 | 100 | 1016.6 |
| 20260506011807 | 46 | 152 | 2.0 | 3.0 | 0.00 | 0.43 | 0.00 | 100 | 1016.6 |
| 20260506011307 | 46 | 102 | 2.0 | 3.0 | 0.00 | 0.43 | 0.00 | 100 | 1016.8 |
| 20260506010806 | 46 | 98 | 2.0 | 3.0 | 0.00 | 0.43 | 0.00 | 100 | 1016.8 |
| 20260506010307 | 47 | 157 | 1.0 | 2.0 | 0.00 | 0.43 | 0.00 | 100 | 1016.9 |
| 20260506005806 | 47 | 265 | 1.0 | 2.0 | 0.00 | 0.43 | 0.00 | 100 | 1016.9 |
| 20260506004807 | 47 | 228 | 2.0 | 3.0 | 0.00 | 0.43 | 0.00 | 100 | 1017.0 |
| 20260506002807 | 48 | 213 | 1.0 | 2.0 | 0.00 | 0.43 | 0.00 | 100 | 1017.1 |
| 20260506002306 | 48 | 220 | 1.0 | 2.0 | 0.00 | 0.43 | 0.00 | 100 | 1017.1 |
| 20260506001807 | 48 | 177 | 1.0 | 2.0 | 0.00 | 0.43 | 0.00 | 100 | 1017.1 |
| 20260505235806 | 49 | 146 | 2.0 | 3.0 | 0.00 | 0.43 | 0.00 | 100 | 1017.1 |